Location: Star Dogged Moon Observatory
(29.7756°N, 82.0783°W)
Time: 03:40:56
(UTC-04:00)

ARGOS - Visible Passes

Search period start: 23 April 2014 00:00
Search period end: 03 May 2014 00:00
Orbit: 821 x 835 km, 98.8° (Epoch: 22 April)

Date Brightness Start Highest point End Pass type
(mag) Time Alt. Az. Time Alt. Az. Time Alt. Az.
23 Apr 5.1 21:51:32 14° NE 21:51:32 14° NE 21:53:13 10° NNE visible
23 Apr 5.1 23:33:03 25° NNW 23:33:03 25° NNW 23:35:19 10° NNW visible
24 Apr 4.7 23:14:20 31° NNW 23:14:20 31° NNW 23:17:03 10° NNW visible
25 Apr 4.5 22:55:38 33° N 22:55:38 33° N 22:58:37 10° N visible
26 Apr 4.5 22:36:55 30° NNE 22:36:55 30° NNE 22:40:00 10° N visible
27 Apr 5.9 00:18:26 12° NW 00:18:26 12° NW 00:18:59 10° NW visible
27 Apr 4.6 22:18:12 24° NE 22:18:12 24° NE 22:21:10 10° NNE visible
27 Apr 5.5 23:59:44 18° NW 23:59:44 18° NW 00:01:25 10° NW visible
28 Apr 4.9 21:59:30 17° NE 21:59:30 17° NE 22:02:01 10° NNE visible
28 Apr 5.1 23:41:01 26° NW 23:41:01 26° NW 23:43:28 10° NNW visible
29 Apr 5.2 21:40:47 11° ENE 21:40:47 11° ENE 21:42:02 10° NE visible
29 Apr 4.6 23:22:19 34° NNW 23:22:19 34° NNW 23:25:18 10° NNW visible
30 Apr 4.3 23:03:36 39° N 23:03:36 39° N 23:06:56 10° N visible
01 May 4.2 22:44:54 37° NNE 22:44:54 37° NNE 22:48:24 10° N visible
02 May 5.9 00:26:25 11° WNW 00:26:25 11° WNW 00:26:41 10° WNW visible
02 May 4.4 22:26:11 29° NE 22:26:11 29° NE 22:29:40 10° N visible
